CW9561 Weather Reports


time (UTC)temp
F
wind
direction
speed
knots
gust
knots
rain 1hr
in
rain 24hr
in
rain mn
in
humidity
%
barometer
mb
20260902140039 54 309 0.0 0.0 0.00 0.00 0.00 69 1027.8
20260902133040 49 304 0.0 0.0 0.00 0.00 0.00 78 1027.5
20260902132020 47 305 0.0 0.0 0.00 0.00 0.00 79 1027.4
20260902131024 47 305 0.0 0.0 0.00 0.00 0.00 81 1027.4
20260902130021 46 305 0.0 0.0 0.00 0.00 0.00 80 1027.4
20260902125019 46 305 0.0 0.0 0.00 0.00 0.00 79 1027.2
20260902124024 47 305 0.0 0.0 0.00 0.00 0.00 75 1027.3
20260902123022 48 305 0.0 0.0 0.00 0.00 0.00 72 1027.2
20260902122020 49 305 0.0 0.0 0.00 0.00 0.00 72 1027.1
20260902121018 49 305 0.0 0.0 0.00 0.00 0.00 71 1026.9
20260902120021 49 305 0.0 0.0 0.00 0.00 0.00 71 1026.8
20260902114039 48 306 0.0 0.0 0.00 0.00 0.00 73 1026.7
20260902113035 48 306 0.0 0.0 0.00 0.00 0.00 76 1026.6
20260902112035 48 306 0.0 0.0 0.00 0.00 0.00 73 1026.5
20260902111018 48 306 0.0 0.0 0.00 0.00 0.00 75 1026.5
20260902105037 48 306 0.0 0.0 0.00 0.00 0.00 76 1026.7
20260902104038 47 306 0.0 0.0 0.00 0.00 0.00 78 1026.7
20260902103035 46 306 0.0 0.0 0.00 0.00 0.00 79 1026.7
20260902102036 46 306 0.0 0.0 0.00 0.00 0.00 80 1026.5
20260902100029 45 306 0.0 0.0 0.00 0.00 0.00 81 1026.7
20260902094027 46 306 0.0 0.0 0.00 0.00 0.00 80 1026.8
20260902093028 46 306 0.0 0.0 0.00 0.00 0.00 79 1026.8
20260902091027 46 306 0.0 0.0 0.00 0.00 0.00 79 1026.9
20260902085021 47 306 0.0 0.0 0.00 0.00 0.00 79 1027.0
20260902084038 47 306 0.0 0.0 0.00 0.00 0.00 79 1027.1
20260902083020 46 306 0.0 0.0 0.00 0.00 0.00 80 1027.2
20260902082037 46 306 0.0 0.0 0.00 0.00 0.00 79 1027.2
20260902081032 46 306 0.0 0.0 0.00 0.00 0.00 79 1027.2
20260902080033 46 306 1.7 0.0 0.00 0.00 0.00 78 1027.2
20260902074040 48 306 0.0 0.0 0.00 0.00 0.00 75 1027.0
20260902073016 48 306 0.0 0.0 0.00 0.00 0.00 75 1026.9
20260902071035 49 306 0.0 0.0 0.00 0.00 0.00 74 1026.9
20260902064037 49 306 0.0 0.0 0.00 0.00 0.00 75 1026.6
20260902063032 49 306 0.0 0.0 0.00 0.00 0.00 76 1026.3
20260902062028 48 306 0.0 0.0 0.00 0.00 0.00 77 1026.4
20260902061030 47 306 0.0 0.0 0.00 0.00 0.00 77 1026.2
20260902060028 48 306 0.0 0.0 0.00 0.00 0.00 76 1026.2
20260902055025 48 306 0.0 0.0 0.00 0.00 0.01 76 1026.2
20260902053023 47 306 0.0 0.0 0.00 0.00 0.01 77 1026.2
20260902052025 47 306 0.0 0.0 0.00 0.00 0.01 77 1026.9
20260902051022 48 306 0.0 0.0 0.00 0.00 0.01 75 1026.8
20260902050018 49 306 0.0 0.0 0.00 0.00 0.01 72 1026.8
20260902045017 49 306 0.0 0.0 0.00 0.00 0.01 72 1026.8
20260902044017 50 306 0.0 0.0 0.00 0.00 0.01 71 1026.9
20260902043022 50 306 0.0 0.0 0.00 0.00 0.01 70 1027.0
20260902042041 51 306 0.0 0.0 0.00 0.00 0.01 69 1027.0
20260902041037 51 306 0.0 0.0 0.00 0.00 0.01 68 1027.0
20260902035033 52 306 0.0 0.0 0.00 0.00 0.01 68 1027.0
20260902034034 52 306 0.0 0.0 0.00 0.00 0.01 68 1026.8
20260902033031 53 306 0.0 0.0 0.00 0.00 0.01 67 1026.7
20260902032028 54 306 0.0 0.0 0.00 0.00 0.01 66 1026.5
20260902031025 54 306 0.0 0.0 0.00 0.00 0.01 68 1026.6
20260902030028 53 306 0.0 0.0 0.00 0.00 0.01 71 1026.5
20260902024025 55 306 0.0 0.0 0.00 0.00 0.01 72 1026.2
20260902023040 54 306 0.0 0.0 0.00 0.00 0.01 73 1026.2
20260902022038 54 306 0.0 0.0 0.00 0.00 0.01 75 1025.9
20260902021039 54 306 0.0 0.0 0.00 0.00 0.01 75 1025.8
20260902020032 55 306 0.0 0.0 0.00 0.00 0.01 76 1025.7
20260902015030 55 306 0.0 0.0 0.00 0.00 0.01 73 1025.7
20260902014026 56 306 0.0 0.0 0.00 0.00 0.01 70 1025.6
20260902013027 58 306 0.0 0.0 0.00 0.00 0.01 67 1025.5
20260902012043 59 306 0.0 0.0 0.00 0.00 0.01 65 1025.5
20260902011038 61 306 0.0 0.0 0.00 0.00 0.01 62 1025.7
20260902005036 63 306 0.0 0.0 0.00 0.00 0.01 56 1026.0
20260902004037 64 306 0.0 0.0 0.00 0.00 0.01 53 1026.0
20260902003033 64 321 0.0 0.0 0.00 0.00 0.01 48 1026.2
20260902002031 64 54 0.0 0.0 0.00 0.00 0.01 48 1026.0
20260902000034 66 98 0.0 0.0 0.00 0.00 0.01 46 1025.4
20260901235035 66 126 0.0 0.0 0.00 0.00 0.01 45 1025.3
20260901234031 66 166 0.9 0.0 0.00 0.00 0.01 43 1025.5
20260901232030 66 98 0.9 0.0 0.00 0.00 0.01 43 1026.3
20260901231026 64 96 2.6 0.0 0.00 0.00 0.01 58 1026.5
20260901230030 64 109 0.9 0.0 0.00 0.00 0.01 60 1026.3
20260901225025 64 108 1.7 0.0 0.00 0.00 0.01 61 1026.5
20260901224025 64 90 3.5 0.0 0.00 0.00 0.01 61 1026.6
20260901223023 64 88 2.6 0.0 0.00 0.00 0.01 62 1026.4
20260901222026 63 115 3.5 0.0 0.00 0.00 0.01 65 1026.6
20260901221024 62 59 0.9 0.0 0.00 0.00 0.01 68 1026.5
20260901220023 63 317 0.9 0.0 0.00 0.00 0.01 64 1026.9
20260901215038 65 66 0.9 0.0 0.00 0.00 0.01 62 1026.6
20260901213036 65 200 0.0 0.0 0.00 0.00 0.01 55 1026.8
20260901211035 63 280 0.0 0.0 0.00 0.00 0.01 59 1027.0
20260901210031 64 265 1.7 0.0 0.00 0.00 0.01 56 1026.3
20260901205030 69 140 0.9 0.0 0.00 0.00 0.01 48 1026.2
20260901204031 68 145 0.9 0.0 0.00 0.00 0.01 47 1026.4
20260901203029 67 135 0.0 0.0 0.00 0.00 0.01 50 1026.3
20260901201026 66 207 0.9 0.0 0.00 0.00 0.01 51 1026.5
20260901200026 65 241 0.0 0.0 0.00 0.00 0.01 55 1026.5
20260901195024 64 161 0.0 0.0 0.00 0.00 0.01 55 1026.5
20260901194022 64 166 0.9 0.0 0.00 0.00 0.01 54 1026.5
20260901193038 65 156 0.0 0.0 0.00 0.00 0.01 52 1026.5
20260901192033 67 153 0.9 0.0 0.00 0.00 0.01 50 1027.3
20260901191036 67 220 0.9 0.0 0.00 0.00 0.01 50 1027.3
20260901185034 67 261 0.9 0.0 0.00 0.00 0.01 52 1027.4
20260901183036 65 213 0.9 0.0 0.00 0.00 0.01 55 1027.6
20260901182035 66 355 0.9 0.0 0.00 0.00 0.01 55 1027.8
20260901181031 66 152 0.0 0.0 0.00 0.00 0.01 55 1027.7
20260901180029 65 116 0.9 0.0 0.00 0.00 0.01 59 1027.0
20260901175025 65 258 0.9 0.0 0.00 0.00 0.01 61 1026.9
20260901174025 65 126 0.9 0.0 0.00 0.00 0.01 56 1026.9
20260901172040 64 163 0.9 0.0 0.00 0.00 0.01 58 1027.5
20260901170033 64 287 0.0 0.0 0.00 0.00 0.01 61 1027.9
20260901165030 64 209 0.9 0.0 0.00 0.00 0.01 59 1028.1
20260901164033 63 271 0.0 0.0 0.00 0.00 0.01 61 1028.1
20260901163030 62 238 0.9 0.0 0.00 0.00 0.01 65 1028.0
20260901162025 62 192 0.0 0.0 0.00 0.00 0.01 64 1028.0
20260901161021 62 252 0.0 0.0 0.00 0.00 0.01 65 1027.9
20260901160023 60 135 0.9 0.0 0.00 0.00 0.01 68 1028.0
20260901155019 60 238 0.0 0.0 0.00 0.00 0.01 70 1028.2
20260901154039 59 236 0.9 0.0 0.00 0.00 0.01 71 1027.7
20260901153035 59 292 0.9 0.0 0.00 0.00 0.01 74 1027.5
20260901152031 59 165 0.0 0.0 0.00 0.00 0.01 73 1027.4
20260901151035 57 242 0.0 0.0 0.00 0.00 0.01 76 1027.8
20260901145029 54 168 0.0 0.0 0.00 0.00 0.01 83 1027.9
20260901143025 53 242 0.0 0.0 0.00 0.00 0.01 85 1028.1
20260901142029 53 302 0.0 0.0 0.00 0.00 0.01 87 1028.1